Flag for U.S.A. Weather past 2 weeks in Wheaton, Illinois, U.S.A.

Now
50 °F

Overcast.


Feels Like: 47 °F
Forecast: 44 / 52 °F
Wind: 8 mph from North

Location: Dupage Airport

Current Time: Oct 21, 2014 at 4:48:01 AM

Latest Report: Oct 21, 2014 at 3:52 AM


Visibility: 10 mi

Pressure: 30.03 "Hg

Humidity: 77%

Dew point: 43 °F

Location of WheatonLocation

Historic Weather in Wheaton — Graph

°F

Wheaton temperature yesterday

Maximum temperature yesterday: 66 °F (at 1:52 PM)
Minimum temperature yesterday: 44 °F (at 4:52 AM)
Average temperature yesterday: 54 °F

Past Weeks' High & Low Weather Summary

 TemperatureHumidityPressure
High68 °F (Oct 7, 2:52 PM)97% (Oct 12, 10:52 PM)30.27 "Hg (Oct 12, 10:52 PM)
Low30 °F (Oct 19, 6:54 AM)27% (Oct 9, 2:52 PM)29.45 "Hg (Oct 14, 8:52 AM)
Average52 °F77%29.90 "Hg
* Reported Oct 6 3:52 AM — Oct 21 3:52 AM, Wheaton, Weather by CustomWeather, © 2014

Note: Actual official high and low records may vary slightly from our data, if they occured in-between our weather recording intervals... More about our weather records

Advertising

Wheaton weather history for previous 24 hours

 ConditionsComfort  
Time TempWeatherWind HumidityBarometerVisibility
3:52 AM
Oct 21
50 °FOvercast.8 mph77%30.03 "Hg10 mi
2:52 AM51 °FOvercast.9 mph71%30.02 "Hg10 mi
1:52 AM51 °FOvercast.5 mph74%30.01 "Hg10 mi
12:52 AM51 °FOvercast.6 mph71%30.00 "Hg10 mi
11:52 PM
Oct 20
51 °FOvercast.8 mph69%30.00 "Hg10 mi
10:52 PM52 °FOvercast.9 mph66%30.00 "Hg10 mi
9:52 PM53 °FOvercast.6 mph64%30.00 "Hg10 mi
8:52 PM53 °FOvercast.8 mph66%29.99 "Hg10 mi
7:52 PM54 °FOvercast.10 mph64%29.98 "Hg10 mi
6:52 PM56 °FOvercast.12 mph60%29.96 "Hg10 mi
5:52 PM55 °FScattered clouds.9 mph64%29.94 "Hg10 mi
4:52 PM60 °FOvercast.14 mph52%29.91 "Hg10 mi
3:52 PM64 °FScattered clouds.21 mph47%29.88 "Hg10 mi
2:52 PM64 °FPassing clouds.13 mph49%29.85 "Hg10 mi
1:52 PM66 °FPassing clouds.15 mph50%29.84 "Hg10 mi
12:52 PM65 °FSunny.9 mph52%29.84 "Hg10 mi
11:52 AM63 °FScattered clouds.8 mph58%29.85 "Hg10 mi
10:52 AM60 °FScattered clouds.13 mph62%29.85 "Hg10 mi
9:52 AM55 °FSunny.10 mph72%29.84 "Hg10 mi
8:52 AM49 °FSunny.6 mph84%29.85 "Hg10 mi
7:52 AM45 °FClear.No wind90%29.83 "Hg10 mi
6:52 AM45 °FClear.7 mph90%29.81 "Hg10 mi
5:52 AM45 °FPassing clouds.5 mph90%29.80 "Hg10 mi
4:52 AM44 °FPassing clouds.6 mph93%29.81 "Hg10 mi
Weather by CustomWeather, © 2014

See weather overviewHow to use our weather pages